Date,TemperatureHighF,TemperatureAvgF,TemperatureLowF,DewpointHighF,DewpointAvgF,DewpointLowF,HumidityHigh,HumidityAvg,HumidityLow,PressureMaxIn,PressureMinIn,WindSpeedMaxMPH,WindSpeedAvgMPH,GustSpeedMaxMPH,PrecipitationSumIn
2013-1-1,23,15,1,19,12,-1,99,86,66,30.32,30.18,0,0,0,0.00
2013-1-2,31,16,-1,19,10,-3,97,80,58,30.29,30.18,7,2,11,0.00
2013-1-3,34,24,13,28,22,13,100,90,78,30.43,30.23,9,5,14,0.00
2013-1-4,36,23,10,25,19,10,100,86,64,30.43,30.31,11,5,16,0.00
2013-1-5,37,33,26,34,29,21,99,85,77,30.31,30.11,13,8,17,0.00
2013-1-6,36,27,18,33,23,17,96,85,70,30.40,30.12,15,7,25,0.00
2013-1-7,47,31,18,31,24,17,97,78,50,30.39,30.15,11,5,15,0.00
2013-1-8,51,38,28,36,30,25,91,72,50,30.19,30.08,8,5,12,0.00
2013-1-9,55,41,33,38,34,31,97,76,47,30.49,30.19,8,4,12,0.00
2013-1-10,46,41,36,46,38,29,100,89,61,30.47,29.80,16,8,23,0.00
2013-1-11,60,52,44,50,48,44,100,85,66,29.87,29.74,16,10,25,0.00
2013-1-12,56,40,26,47,34,25,100,80,57,30.06,29.79,14,9,21,0.00
2013-1-13,26,19,12,26,16,9,100,89,73,30.39,30.00,8,4,11,0.00
2013-1-14,27,16,9,16,11,7,95,82,57,30.53,30.39,6,2,8,0.00
2013-1-15,29,19,8,19,15,7,96,83,62,30.45,30.19,9,2,13,0.00
2013-1-16,38,27,14,28,20,11,94,77,60,30.21,30.04,13,6,19,0.00
2013-1-17,38,32,25,31,26,21,98,79,53,30.50,30.15,12,6,17,0.00
2013-1-18,52,39,26,33,27,22,87,66,44,30.50,30.12,17,10,25,0.00
2013-1-19,57,46,38,41,34,28,75,64,53,30.20,29.96,19,11,27,0.00
2013-1-20,39,26,20,31,15,10,85,65,46,30.40,30.20,14,8,20,0.00
2013-1-21,20,15,12,15,4,-3,85,60,41,30.43,30.35,17,10,25,0.00
2013-1-22,17,12,10,12,7,0,92,77,58,30.51,30.38,8,3,11,0.00
2013-1-23,41,24,9,26,17,8,95,78,51,30.41,30.18,14,6,19,0.00
2013-1-24,24,18,11,13,7,4,80,63,50,30.61,30.26,15,10,20,0.00
2013-1-25,41,30,23,25,19,13,78,63,46,30.28,30.15,12,6,17,0.00
2013-1-26,40,29,18,24,17,12,89,62,35,30.43,30.28,9,6,15,0.00
2013-1-27,53,37,29,51,34,20,100,90,67,30.30,29.89,16,10,23,0.00
2013-1-28,72,59,49,63,55,49,100,88,66,29.97,29.83,11,6,17,0.00
2013-1-29,68,58,49,61,56,48,100,93,79,29.83,29.49,17,7,28,0.00
2013-1-30,48,32,24,48,28,15,100,88,67,29.95,29.41,21,13,32,0.00
2013-1-31,26,18,7,20,10,-1,84,70,54,30.44,29.95,16,13,24,0.00
2013-2-1,28,16,5,15,6,-1,80,64,51,30.50,30.20,13,8,21,0.00
2013-2-2,36,31,27,29,23,15,100,72,57,30.22,30.08,17,8,28,0.00
2013-2-3,34,26,20,29,20,14,100,77,47,30.26,30.00,17,8,24,0.00
2013-2-4,43,32,24,34,26,16,91,78,62,30.03,29.85,13,7,18,0.00
2013-2-5,49,34,25,36,30,23,97,84,59,30.17,29.95,13,6,20,0.00
2013-2-6,52,38,27,36,32,27,100,79,50,30.24,30.05,11,5,16,0.00
2013-2-7,45,40,34,45,38,32,100,93,76,30.14,29.92,18,7,23,0.00
2013-2-8,34,32,31,33,29,28,98,92,87,30.42,30.14,14,7,21,0.00
2013-2-9,40,34,29,35,30,27,97,86,73,30.37,30.00,14,9,18,0.00
2013-2-10,60,46,36,52,40,30,100,81,39,30.00,29.53,23,15,37,0.00
2013-2-11,46,38,32,32,29,25,86,69,53,30.19,29.82,23,12,37,0.00
2013-2-12,40,33,26,31,28,25,100,85,61,30.21,29.99,5,1,7,0.00
2013-2-13,48,38,30,34,31,28,93,77,57,30.00,29.85,14,6,21,0.00
2013-2-14,49,41,33,35,33,28,91,74,55,30.12,29.84,15,8,22,0.00
2013-2-15,36,30,22,29,19,15,90,65,42,30.34,30.13,15,9,22,0.00
2013-2-16,34,25,17,24,17,13,94,72,47,30.32,30.19,11,5,16,0.00
2013-2-17,49,36,26,33,24,20,88,65,38,30.19,29.88,13,8,21,0.00
2013-2-18,55,42,28,49,37,20,98,82,67,29.97,29.52,21,13,33,0.00
2013-2-19,28,23,20,22,15,12,81,70,55,30.35,29.98,19,13,29,0.00
2013-2-20,24,19,12,15,11,7,87,72,61,30.46,30.32,9,6,13,0.00
2013-2-21,29,23,20,29,21,14,100,93,74,30.35,29.85,19,11,26,0.00
2013-2-22,32,27,15,32,25,14,100,90,79,30.10,29.82,15,8,22,0.00
2013-2-23,22,14,7,17,12,6,100,94,82,30.09,30.04,6,3,8,0.00
2013-2-24,42,26,6,27,18,5,100,76,48,30.15,30.05,9,4,13,0.00
2013-2-25,41,33,20,33,27,18,98,79,58,30.10,29.75,20,9,30,0.00
2013-2-26,34,32,31,34,32,31,100,100,97,29.75,29.46,20,13,31,0.00
2013-2-27,32,30,28,31,30,27,100,98,91,29.96,29.74,16,10,21,0.00
2013-2-28,33,30,28,30,28,26,100,93,82,30.17,29.95,14,9,20,0.00
2013-3-1,34,28,22,30,25,19,100,90,69,30.28,30.13,13,8,17,0.00
2013-3-2,29,24,15,23,19,12,98,83,65,30.33,30.25,13,7,17,0.00
2013-3-3,34,24,7,26,18,6,100,81,62,30.26,30.02,11,5,18,0.00
2013-3-4,43,37,32,33,29,26,90,75,60,30.02,29.79,15,10,22,0.00
2013-3-5,35,31,29,33,28,23,100,89,71,30.23,29.88,22,14,33,0.00
2013-3-6,33,28,17,25,22,16,99,79,66,30.42,30.23,20,8,29,0.00
2013-3-7,41,28,14,29,23,14,100,82,56,30.44,30.32,9,4,13,0.00
2013-3-8,46,37,28,33,30,27,96,77,59,30.40,30.19,12,8,17,0.00
2013-3-9,54,44,37,45,37,32,97,79,63,30.19,29.78,13,8,23,0.00
2013-3-10,54,47,37,51,46,36,100,96,84,29.81,29.63,16,6,24,0.00
2013-3-11,37,32,29,36,29,25,100,91,76,30.03,29.78,18,12,26,0.00
2013-3-12,42,33,27,33,27,24,95,79,60,30.27,30.01,18,10,26,0.00
2013-3-13,38,30,25,26,21,18,90,69,47,30.48,30.27,16,9,23,0.00
2013-3-14,61,41,27,47,32,22,90,71,46,30.42,30.10,13,6,18,0.00
2013-3-15,73,53,32,53,42,31,96,69,43,30.14,29.72,12,4,18,0.00
2013-3-16,56,42,37,48,38,33,95,85,71,30.12,29.70,18,8,28,0.00
2013-3-17,37,34,31,33,32,28,100,93,80,30.14,29.83,16,10,22,0.00
2013-3-18,49,38,32,39,32,23,100,82,47,30.08,29.75,21,10,31,0.00
2013-3-19,42,34,28,26,21,15,80,61,35,30.27,30.07,12,6,19,0.00
2013-3-20,33,28,23,31,19,13,95,70,47,30.34,30.17,17,10,25,0.00
2013-3-21,34,27,18,21,16,13,84,66,49,30.17,30.02,7,4,11,0.00
2013-3-22,40,34,29,28,24,21,82,70,56,30.08,30.02,9,5,13,0.00
2013-3-23,50,41,34,35,29,25,88,65,48,30.09,29.91,16,8,23,0.00
2013-3-24,38,30,29,35,30,29,100,100,88,29.97,29.73,18,12,27,0.00
2013-3-25,32,30,26,31,27,24,100,89,73,30.25,29.93,18,10,25,0.00
2013-3-26,37,31,25,26,25,22,91,78,58,30.39,30.25,11,7,16,0.00
2013-3-27,46,34,21,32,26,21,100,75,46,30.43,30.32,9,3,12,0.00
2013-3-28,54,43,34,40,33,27,81,70,57,30.37,30.26,11,8,18,0.00
2013-3-29,61,47,32,47,40,32,100,78,52,30.29,30.22,9,4,15,0.00
2013-3-30,51,46,38,48,42,-100,100,93,78,30.24,29.96,15,6,20,0.00
2013-3-31,63,52,43,50,44,33,100,78,46,30.03,29.92,16,7,24,0.00
2013-4-1,44,38,32,35,26,21,80,64,40,30.31,30.03,15,8,22,0.00
2013-4-2,48,36,25,30,23,19,90,60,32,30.40,30.31,8,3,13,0.00
2013-4-3,50,39,28,32,26,21,83,61,36,30.45,30.30,13,6,18,0.00
2013-4-4,59,46,30,38,29,25,94,57,31,30.30,30.09,6,2,12,0.00
2013-4-5,67,52,38,41,36,31,86,58,31,30.24,30.04,10,4,16,0.00
2013-4-6,72,60,48,53,44,38,78,57,37,30.04,29.73,21,11,31,0.00
2013-4-7,75,61,43,56,49,43,99,66,36,29.97,29.78,12,4,18,0.00
2013-4-8,76,66,53,63,58,50,92,78,60,29.88,29.74,18,8,30,0.00
2013-4-9,76,68,62,64,61,58,89,79,65,29.91,29.81,18,9,26,0.00
2013-4-10,68,56,49,63,55,48,100,95,80,29.91,29.69,20,8,31,0.00
2013-4-11,51,41,38,51,39,32,100,90,78,29.78,29.72,16,10,23,0.00
2013-4-12,42,38,34,36,33,31,92,83,74,30.04,29.77,15,8,23,0.00
2013-4-13,57,44,32,41,36,31,93,74,54,30.12,29.91,11,6,16,0.00
2013-4-14,78,62,47,57,48,40,98,63,33,29.90,29.59,19,12,28,0.00
2013-4-15,59,54,45,58,50,42,98,89,62,30.09,29.77,18,6,28,0.00
2013-4-16,48,44,41,44,41,39,98,90,81,30.22,30.02,14,8,18,0.00
2013-4-17,68,52,46,65,51,43,100,96,82,30.18,29.70,20,10,29,0.00
2013-4-18,64,52,38,63,50,31,100,93,74,29.86,29.56,19,11,30,0.00
2013-4-19,48,40,35,32,30,28,82,67,48,30.12,29.83,20,14,32,0.00
2013-4-20,54,42,29,34,30,25,94,64,35,30.35,30.12,7,3,11,0.00
2013-4-21,63,51,40,46,40,33,78,65,51,30.40,30.26,15,10,21,0.00
2013-4-22,69,57,44,51,43,38,86,61,37,30.28,29.99,13,6,18,0.00
2013-4-23,58,45,37,50,42,36,99,92,64,30.13,29.97,14,8,20,0.00
2013-4-24,51,41,33,37,33,30,100,76,45,30.27,30.09,13,8,23,0.00
2013-4-25,62,50,38,41,35,31,87,59,35,30.38,30.25,12,6,17,0.00
2013-4-26,60,52,48,50,45,38,93,76,60,30.38,30.27,12,8,20,0.00
2013-4-27,51,49,46,51,48,45,100,98,92,30.32,30.02,8,5,11,0.00
2013-4-28,63,53,49,54,51,49,100,91,69,30.04,29.93,8,5,12,0.00
2013-4-29,82,65,46,65,56,46,100,77,48,29.95,29.77,15,7,24,0.00
2013-4-30,84,73,61,62,58,53,93,62,36,29.98,29.80,14,8,22,0.00
2013-5-1,82,71,57,61,57,53,86,63,40,30.13,29.98,9,5,13,0.00
2013-5-2,66,49,37,60,45,36,99,87,76,30.27,30.12,15,10,21,0.00
2013-5-3,40,37,35,39,37,35,100,99,97,30.21,29.86,13,10,21,0.00
2013-5-4,47,42,36,44,40,36,100,94,82,30.08,29.86,7,3,11,0.00
2013-5-5,65,52,42,58,50,42,100,94,74,30.08,29.97,14,5,22,0.00
2013-5-6,72,61,52,58,55,51,100,81,57,30.09,30.01,11,6,18,0.00
2013-5-7,79,66,51,57,52,45,94,65,32,30.11,30.04,7,2,10,0.00
2013-5-8,79,66,53,61,56,51,95,73,44,30.10,30.02,14,4,22,0.00
2013-5-9,73,64,59,64,61,58,98,90,72,30.02,29.89,13,6,20,0.00
2013-5-10,60,56,52,59,53,-100,100,94,83,30.08,29.91,11,6,15,0.00
2013-5-11,62,54,45,54,42,-100,100,71,40,30.24,30.06,19,8,28,0.00
2013-5-12,60,50,38,41,34,28,87,57,34,30.31,30.19,11,5,18,0.00
2013-5-13,73,57,38,54,43,35,93,62,31,30.26,30.03,8,4,13,0.00
2013-5-14,88,72,54,60,55,49,88,58,32,30.03,29.85,16,9,23,0.00
2013-5-15,87,76,64,68,60,54,82,60,44,29.98,29.87,13,8,21,0.00
2013-5-16,82,67,62,67,44,-100,99,78,59,30.01,29.91,14,5,21,0.00
2013-5-17,79,69,61,66,57,-100,94,79,62,30.03,29.96,7,4,12,0.00
2013-5-18,82,71,61,68,65,61,100,83,58,30.06,29.91,10,5,17,0.00
2013-5-19,89,78,68,72,68,61,94,73,46,29.95,29.71,16,9,24,0.00
2013-5-20,81,69,61,70,63,60,98,84,51,29.95,29.73,22,10,33,0.00
2013-5-21,77,68,62,66,63,61,96,83,62,29.83,29.74,14,8,21,0.00
2013-5-22,70,64,60,62,57,54,96,79,63,29.94,29.74,14,7,20,0.00
2013-5-23,66,59,52,58,54,51,99,83,70,30.29,29.94,13,7,23,0.00
2013-5-24,68,57,44,51,46,42,100,70,41,30.46,30.29,9,5,16,0.00
2013-5-25,65,58,51,59,52,44,95,81,67,30.36,30.18,17,7,25,0.00
2013-5-26,78,66,54,69,61,51,96,85,72,30.22,30.03,11,6,17,0.00
2013-5-27,71,66,61,69,64,61,100,93,82,30.06,29.79,15,6,21,0.00
2013-5-28,78,72,66,72,68,62,97,86,78,29.98,29.80,14,9,23,0.00
2013-5-29,85,74,64,70,65,60,93,76,55,30.01,29.83,14,8,22,0.00
2013-5-30,82,71,63,70,66,61,98,83,62,29.94,29.81,18,10,30,0.00
2013-5-31,78,66,61,74,65,61,100,96,83,29.95,29.74,14,6,23,0.00
2013-6-1,75,67,62,68,62,57,99,84,59,29.97,29.77,15,9,22,0.00
2013-6-2,64,60,54,57,55,52,91,84,74,30.11,29.96,10,6,14,0.00
2013-6-3,71,61,49,56,52,48,98,75,56,30.16,30.04,8,3,12,0.00
2013-6-4,76,64,54,62,56,52,94,78,60,30.14,30.04,9,5,15,0.00
2013-6-5,77,67,56,65,61,55,97,83,64,30.09,29.95,6,3,9,0.00
2013-6-6,75,67,60,64,59,54,100,77,50,29.98,29.92,9,5,17,0.00
2013-6-7,73,63,54,61,56,53,96,80,58,30.02,29.97,9,4,13,0.00
2013-6-8,79,67,52,61,57,52,100,72,45,30.03,29.94,8,3,14,0.00
2013-6-9,75,66,59,67,61,57,100,85,72,29.97,29.84,16,6,28,0.00
2013-6-10,80,69,63,66,63,60,94,81,58,29.97,29.84,10,4,13,0.00
2013-6-11,88,76,62,76,68,61,97,79,54,29.99,29.90,11,5,18,0.00
2013-6-12,92,81,69,75,71,67,92,73,50,29.98,29.79,21,9,29,0.00
2013-6-13,82,74,65,68,62,59,85,69,47,30.09,29.86,14,7,22,0.00
2013-6-14,81,71,60,68,63,59,98,76,56,30.17,30.00,14,4,23,0.00
2013-6-15,87,74,66,75,68,61,99,83,66,30.14,29.98,26,7,37,0.00
2013-6-16,83,72,67,74,70,66,99,92,72,30.09,29.98,9,3,13,0.00
2013-6-17,82,75,66,74,71,64,100,87,72,30.03,29.97,9,3,21,0.00
2013-6-18,85,73,63,70,64,61,100,77,45,30.06,29.99,9,4,14,0.00
2013-6-19,86,74,60,68,64,59,96,73,45,30.14,30.05,6,2,11,0.00
2013-6-28,77,77,77,69,69,69,75,75,75,29.91,29.91,8,8,11,0.00
2013-10-4,79,79,79,67,67,67,68,68,68,29.94,29.94,5,5,7,0.00
2013-10-6,50,50,50,40,40,40,69,69,69,29.91,29.91,12,12,23,0.00